Location: *
(49.6619°S, 177.4603°W)
Time: 01:33:44
(UTC+00:00)

Spot 2 Rocket - Pass Details

Date: 31 January 2023
Orbit: 756 x 770 km, 98.4° (Epoch: 20 March)

Event Time Altitude Azimuth Distance (km) Brightness Sun altitude
Rises 10:40:51 0° 168° (SSE) 3,271 7.7 -20.5°
Reaches altitude 10° 10:43:12 10° 170° (S) 2,336 6.8 -20.6°
Maximum altitude 10:48:19 69° 251° (WSW) 828 3.7 -20.9°
Enters shadow 10:50:48 30° 326° (NNW) 1,346 4.4 -21.1°
